Location: Beadle
(51.4667°N, 109.0000°W)
Time: 11:52:46
(UTC+00:00)

Transit 4A - All Passes

Search period start: 28 May 2022 00:00
Search period end: 07 June 2022 00:00
Orbit: 863 x 981 km, 66.8° (Epoch: 27 May)

Date Brightness Start Highest point End Pass type
(mag) Time Alt. Az. Time Alt. Az. Time Alt. Az.
28 May - 09:12:01 10° SSE 09:16:20 19° ESE 09:20:40 10° ENE visible
28 May - 10:55:25 10° SSW 11:01:49 81° SE 11:08:16 10° NE daylight
28 May - 12:43:04 10° W 12:48:53 34° NNW 12:54:40 10° NNE daylight
28 May - 14:32:32 10° NW 14:37:12 20° N 14:41:49 10° NE daylight
28 May - 16:20:37 10° NNW 16:25:49 25° NNE 16:30:55 10° ENE daylight
28 May - 18:07:11 10° NW 18:13:29 61° NE 18:19:33 10° SE daylight
28 May - 19:53:58 10° NW 19:59:35 35° WSW 20:05:00 10° S daylight
29 May - 09:20:05 10° SSE 09:25:17 27° ESE 09:30:31 10° NE visible
29 May - 11:04:42 10° SW 11:11:08 78° NW 11:17:35 10° NE daylight
29 May - 12:52:58 10° W 12:58:29 29° NNW 13:03:59 10° NNE daylight
29 May - 14:42:23 10° NW 14:46:59 20° N 14:51:32 10° NE daylight
29 May - 16:30:01 10° NNW 16:35:30 29° NNE 16:40:50 10° E daylight
29 May - 18:16:29 10° NW 18:22:50 79° NE 18:28:59 10° SE daylight
29 May - 20:03:38 10° NW 20:08:35 25° WSW 20:13:25 10° SSW daylight
30 May - 09:28:33 10° S 09:34:20 37° ESE 09:40:07 10° NE visible
30 May - 11:14:09 10° SW 11:20:29 61° NW 11:26:51 10° NE daylight
30 May - 13:02:55 10° WNW 13:08:10 25° NNW 13:13:22 10° NNE daylight
30 May - 14:52:08 10° NW 14:56:46 20° N 15:01:21 10° NE daylight
30 May - 16:39:21 10° NNW 16:45:06 34° NNE 16:50:42 10° E daylight
30 May - 18:25:48 10° NW 18:32:07 79° SW 18:38:13 10° SSE daylight
30 May - 20:13:33 10° WNW 20:17:31 18° WSW 20:21:24 10° SW daylight
31 May - 09:37:17 10° S 09:43:26 50° ESE 09:49:36 10° NE visible
31 May - 11:23:44 10° WSW 11:29:56 48° NW 11:36:08 10° NNE daylight
31 May - 13:12:55 10° WNW 13:17:53 23° NNW 13:22:48 10° NE daylight
31 May - 15:01:45 10° NW 15:06:32 21° NNE 15:11:15 10° ENE daylight
31 May - 16:48:39 10° NNW 16:54:39 42° NE 17:00:28 10° ESE daylight
31 May - 18:35:09 10° NW 18:41:20 59° WSW 18:47:17 10° SSE daylight
31 May - 20:24:12 10° WNW 20:26:22 12° W 20:28:31 10° WSW daylight
01 Jun - 08:03:52 10° SE 08:07:20 15° ESE 08:10:48 10° ENE visible
01 Jun - 09:46:16 10° SSW 09:52:36 68° ESE 09:58:58 10° NE visible
01 Jun - 11:33:28 10° WSW 11:39:27 39° NW 11:45:24 10° NNE daylight
01 Jun - 13:22:53 10° WNW 13:27:38 21° N 13:32:20 10° NE daylight
01 Jun - 15:11:16 10° NW 15:16:17 23° NNE 15:21:12 10° ENE daylight
01 Jun - 16:57:56 10° NW 17:04:07 52° NE 17:10:07 10° ESE daylight
01 Jun - 18:44:35 10° NW 18:50:27 43° WSW 18:56:08 10° S daylight
02 Jun - 08:11:34 10° SSE 08:16:15 22° ESE 08:20:56 10° ENE visible
02 Jun - 09:55:25 10° SW 10:01:52 89° ESE 10:08:19 10° NE visible
02 Jun - 11:43:19 10° W 11:49:01 32° NNW 11:54:42 10° NNE daylight
02 Jun - 13:32:47 10° NW 13:37:24 20° N 13:41:58 10° NE daylight
02 Jun - 15:20:42 10° NNW 15:25:59 26° NNE 15:31:09 10° E daylight
02 Jun - 17:07:13 10° NW 17:13:33 67° NE 17:19:38 10° SE daylight
02 Jun - 18:54:07 10° NW 18:59:31 31° WSW 19:04:45 10° S daylight
03 Jun - 08:19:48 10° SSE 08:25:13 30° ESE 08:30:41 10° NE visible
03 Jun - 10:04:46 10° SW 10:11:10 72° NW 10:17:35 10° NE visible
03 Jun - 11:53:13 10° W 11:58:39 28° NNW 12:04:01 10° NNE daylight
03 Jun - 13:42:36 10° NW 13:47:12 20° N 13:51:43 10° NE daylight
03 Jun - 15:30:04 10° NNW 15:35:38 30° NNE 15:41:03 10° E daylight
03 Jun - 17:16:31 10° NW 17:22:52 87° NE 17:28:59 10° SE daylight
03 Jun - 19:03:51 10° WNW 19:08:29 22° WSW 19:13:01 10° SSW daylight
04 Jun - 08:28:22 10° S 08:34:17 41° ESE 08:40:14 10° NE visible
04 Jun - 10:14:15 10° WSW 10:20:34 56° NW 10:26:52 10° NE visible
04 Jun - 12:03:12 10° WNW 12:08:20 24° NNW 12:13:25 10° NE daylight
04 Jun - 13:52:18 10° NW 13:56:58 21° N 14:01:34 10° NE daylight
04 Jun - 15:39:24 10° NNW 15:45:13 36° NNE 15:50:53 10° E daylight
04 Jun - 17:25:51 10° NW 17:32:07 72° WSW 17:38:10 10° SSE daylight
04 Jun - 19:13:56 10° WNW 19:17:24 16° WSW 19:20:48 10° SW daylight
05 Jun - 06:56:17 10° ESE 06:58:21 12° E 07:00:26 10° E visible
05 Jun - 08:37:11 10° SSW 08:43:25 56° ESE 08:49:40 10° NE visible
05 Jun - 10:23:55 10° WSW 10:30:03 44° NW 10:36:08 10° NNE daylight
05 Jun - 12:13:12 10° WNW 12:18:04 22° NNW 12:22:53 10° NE daylight
05 Jun - 14:01:53 10° NW 14:06:44 22° NNE 14:11:29 10° ENE daylight
05 Jun - 15:48:41 10° NNW 15:54:45 45° NE 16:00:37 10° ESE daylight
05 Jun - 17:35:14 10° NW 17:41:18 53° WSW 17:47:09 10° SSE daylight
05 Jun - 19:25:48 10° W 19:26:13 10° W 19:26:38 10° WSW daylight
06 Jun - 07:03:15 10° SE 07:07:13 17° ESE 07:11:11 10° ENE visible
06 Jun - 08:46:14 10° SSW 08:52:37 75° ESE 08:59:01 10° NE visible
06 Jun - 10:33:41 10° W 10:39:34 36° NNW 10:45:25 10° NNE daylight
06 Jun - 12:23:08 10° NW 12:27:49 21° N 12:32:27 10° NE daylight
06 Jun - 14:11:22 10° NW 14:16:27 24° NNE 14:21:26 10° ENE daylight
06 Jun - 15:57:59 10° NW 16:04:12 57° NE 16:10:13 10° ESE daylight
06 Jun - 17:44:42 10° NW 17:50:24 38° WSW 17:55:56 10° S daylight
